Regional Weather Roundup
Issued by NWS Upton, NY

Current Version | Previous Version | Text Only | Print | Product List | Glossary On
Versions: 1 2 3 4 5 6 7 8 9 10 11 12 13 14 15 16 17 18 19 20 21 22 23 24 25 26 27 28 29 30 31 32 33 34 35 36 37 38 39 40 41 42 43 44 45 46 47 48 49 50
000
ASUS41 KOKX 271905
RWROKX

REGIONAL WEATHER ROUNDUP
NATIONAL WEATHER SERVICE NEW YORK NY
200 PM EST THU NOV 27 2014

NOTE: "FAIR" INDICATES FEW OR NO CLOUDS BELOW 12,000 FEET WITH NO
SIGNIFICANT WEATHER AND/OR OBSTRUCTIONS TO VISIBILITY.

NYZ071-072-176-178-NJZ106-104-272000-
NEW YORK CITY METRO AREA


CITY           SKY/WX    TMP DP  RH WIND       PRES   REMARKS
CENTRAL PARK   CLOUDY    37  32  82 CALM      30.00S
LAGUARDIA APRT CLOUDY    37  32  82 N7        29.97F WCI  32
KENNEDY INTL   CLOUDY    38  33  82 N8        29.99S WCI  32
NEWARK/LIBERTY CLOUDY    37  32  82 W8        29.99S WCI  31
BRNX BOT. GARD   N/A     36  32  87 N7        29.97F WCI  30
TETERBORO      CLOUDY    37  32  82 NW6       29.97F WCI  32
$$

NYZ177-179-078>081-272000-
LONG ISLAND NEW YORK

CITY           SKY/WX    TMP DP  RH WIND       PRES   REMARKS
FARMINGDALE    CLOUDY    38  31  76 N8        29.97F WCI  32
ISLIP          LGT RAIN  38  31  76 NW10      29.94F WCI  31
SHIRLEY        MIX PCPN  37  32  82 N9        29.96F WCI  30
WESTHAMPTON    CLOUDY    38  32  79 NW8       29.97S WCI  32
MONTAUK POINT    N/A     40  33  76 W6        29.95F
$$

NYZ052-065-067-272000-
HUDSON VALLEY

CITY           SKY/WX    TMP DP  RH WIND       PRES   REMARKS
WHITE PLAINS   FLURRIES  34  29  82 NW10      29.95F WCI  26
NEWBURGH       LGT SNOW  34  32  93 CALM      29.97F FOG
MONTGOMERY     CLOUDY    34  30  85 CALM      29.96F FOG
POUGHKEEPSIE   LGT SNOW  34  29  82 N7        29.98F WCI  28
ALBANY         CLOUDY    32  24  72 N7        30.00F WCI  26
$$

NJZ001-105-106-008-010-013-015-019>022-104-272000-
NEW JERSEY

CITY           SKY/WX    TMP DP  RH WIND       PRES   REMARKS
NEWARK/LIBERTY CLOUDY    37  32  82 W8        29.99S WCI  31
TETERBORO      CLOUDY    37  32  82 NW6       29.97F WCI  32
CALDWELL       CLOUDY    36  29  75 NW6       29.98S WCI  31
MORRISTOWN     CLOUDY    37  30  75 NW5       29.99S WCI  34
SOMERVILLE     CLOUDY    37  30  75 MISG      29.98S
SUSSEX         CLOUDY    35  28  75 VRB3      29.97F
ANDOVER          N/A     34  28  79 N6        29.97F WCI  29
TRENTON        CLOUDY    36  29  75 NW7       30.00R WCI  30
MILLVILLE      MOSUNNY   43  30  60 NW12      30.01R
ATLANTIC CITY  PTSUNNY   44  32  62 W13       29.99S
WRIGHTSTOWN    CLOUDY    38  30  72 NW12      29.97S WCI  31
TOMS RIVER     CLOUDY    39  32  75 NW7       29.99S WCI  34
BELMAR         CLOUDY    37  28  70 NW12      29.98S WCI  30
$$

PAZ047>061-062-071-272000-
EASTERN PENNSYLVANIA

CITY           SKY/WX    TMP DP  RH WIND       PRES   REMARKS
PHILADELPHIA   PTSUNNY   40  27  59 W13       30.02S WCI  32
ALLENTOWN      MOSUNNY   36  25  64 W9        30.00S WCI  29
SCRANTON       CLOUDY    33  25  72 NW13      29.98S WCI  24
$$

CTZ002-004>006-009-010-012-RIZ004-006-007-MAZ004-011-015-272000-
SOUTHERN NEW ENGLAND
 IN CT

CITY           SKY/WX    TMP DP  RH WIND       PRES   REMARKS
BRADLEY INTL   CLOUDY    36  27  69 NW7       29.95S WCI  30
HARTFORD       CLOUDY    36  27  69 VRB6      29.97S WCI  31
DANBURY        CLOUDY    34  25  69 N10       29.97R WCI  26
WTRBRY/OXFORD  CLOUDY    32  25  74 N5        29.95F WCI  27
BRIDGEPORT     FLURRIES  36  31  82 NW6       29.97S WCI  31
MERIDEN        FLURRIES  35  28  75 NW8       29.96S WCI  29
NEW HAVEN      LGT SNOW  38  30  73 NW6       29.96S WCI  33
CHESTER        FLURRIES  36  32  87 N7        29.94F WCI  30
GROTON         CLOUDY    39  32  76 N7        29.94F WCI  34
WILLIMANTIC    CLOUDY    37  29  72 NW8       29.96R WCI  31

 IN RI

CITY           SKY/WX    TMP DP  RH WIND       PRES   REMARKS
PROVIDENCE     CLOUDY    40  30  67 VRB5      29.95R
BLOCK ISLAND   CLOUDY    39  32  75 CALM      29.93F
WESTERLY       LGT RAIN  40  33  76 NW3       29.94F

 IN MA

CITY           SKY/WX    TMP DP  RH WIND       PRES   REMARKS
BOSTON         CLOUDY    37  30  75 NW8       29.95R WCI  31
WORCESTER      CLOUDY    31  26  82 NW9       29.91S WCI  23
WESTFIELD      CLOUDY    35  26  69 NW7       29.96R WCI  29
PROVINCETOWN   CLOUDY    39  30  70 NW7       29.94R WCI  34
NANTUCKET      CLOUDY    41  32  70 N8        29.94R
$$

ANZ330-335-338-340-345-350-353-355-272000-
COASTAL MARINE OBSERVATIONS


STATION/POSITION TIME  SKY/WX   TEMP    WIND        PRES    VSBY  WAVE
                                AIR SEA DIR/SP/G                  HT/PER
                 (UTC)          (F)     (DEG/KT/KT) (MB)    (MI)  (FT/S)
NY HARB ENTRANCE 1900            40 54  290/ 10/ 14 1015.1          4/ 9
4S FIRE IS       1900               52                N/A           4/10
20S FIRE ISLAND  1900            40 54  320/ 12/ 14 1014.2          5/10
23SW MTP         1900                                 N/A           6/10
HUDSON CANYON    1900            45 58  280/ 17/ 21 1013.8          7/ 9
EXECUTION ROCKS  1900            38 47  320/ 10/ 12   N/A
WESTERN LI SOUND 1900            37     330/ 10/ 14   N/A           0
CENTRAL LI SOUND 1800            38 50  340/  6/ 10   N/A           1
EASTERN LI SOUND 1800            40 51  310/  4/  8   N/A
ROBBINS REEF     1900            37     320/  9/ 11 1014.0
$$


>>>>>>>>>>>>>>>>>>>>>>>>>>>> KEY <<<<<<<<<<<<<<<<<<<<<<<<<<<
>                                                          <
>     SKY/WX - SKY CONDITION/PRESENT WEATHER               <
>     TMP    - TEMPERATURE IN FAHRENHEIT                   <
>     DP     - DEWPOINT IN FAHRENHEIT                      <
>     RH     - RELATIVE HUMIDITY IN PERCENT                <
>     WIND   - DIRECTION AND SPEED IN MPH                  <
>     PRES   - MEAN SEA LEVEL PRESSURE IN INCHES OF HG     <
>     WCI    - WIND CHILL INDEX                            <
>     VSB    - VISIBILITY IN MILES                         <
>     HX     - HEAT INDEX                                  <
>     TC     - TEMPERATURE IN CELSIUS                      <
>     VRB    - VARIABLE WIND DIRECTION                     <
>                                                          <
>>>>>>>>>>>>>>>>>>>>>>>>>>>> KEY <<<<<<<<<<<<<<<<<<<<<<<<<<<





USA.gov is the U.S. government's official web portal to all federal, state and local government web resources and services.